TimeCST,TemperatureF,Dew PointF,Humidity,Sea Level PressureIn,VisibilityMPH,Wind Direction,Wind SpeedMPH,Gust SpeedMPH,PrecipitationIn,Events,Conditions,WindDirDegrees,DateUTC
12:15 AM,48.2,-9999,N/A,30.24,10.0,ESE,3.5,-,N/A,,Clear,120,2013-11-09 06:15:00
12:35 AM,48.2,-9999,N/A,30.24,10.0,SSE,4.6,-,N/A,,Clear,150,2013-11-09 06:35:00
12:55 AM,46.4,-9999,N/A,30.24,10.0,SSE,3.5,-,N/A,,Clear,160,2013-11-09 06:55:00
1:15 AM,46.4,-9999,N/A,30.24,10.0,Calm,Calm,-,N/A,,Clear,0,2013-11-09 07:15:00
1:35 AM,46.4,-9999,N/A,30.24,10.0,Calm,Calm,-,N/A,,Clear,0,2013-11-09 07:35:00
1:55 AM,46.4,-9999,N/A,30.25,10.0,Calm,Calm,-,N/A,,Clear,0,2013-11-09 07:55:00
2:15 AM,46.4,-9999,N/A,30.24,10.0,Calm,Calm,-,N/A,,Clear,0,2013-11-09 08:15:00
2:35 AM,46.4,-9999,N/A,30.24,10.0,East,3.5,-,N/A,,Clear,80,2013-11-09 08:35:00
2:55 AM,46.4,-9999,N/A,30.24,10.0,East,4.6,-,N/A,,Clear,90,2013-11-09 08:55:00
3:15 AM,46.4,-9999,N/A,30.24,10.0,East,4.6,-,N/A,,Clear,100,2013-11-09 09:15:00
3:35 AM,46.4,-9999,N/A,30.25,10.0,Calm,Calm,-,N/A,,Clear,0,2013-11-09 09:35:00
3:55 AM,44.6,-9999,N/A,30.25,10.0,Calm,Calm,-,N/A,,Clear,0,2013-11-09 09:55:00
4:15 AM,44.6,-9999,N/A,30.25,10.0,Calm,Calm,-,N/A,,Clear,0,2013-11-09 10:15:00
4:35 AM,44.6,-9999,N/A,30.26,10.0,NNE,3.5,-,N/A,,Clear,20,2013-11-09 10:35:00
4:55 AM,44.6,-9999,N/A,30.26,10.0,Calm,Calm,-,N/A,,Clear,0,2013-11-09 10:55:00
5:15 AM,44.6,-9999,N/A,30.27,10.0,Calm,Calm,-,N/A,,Clear,0,2013-11-09 11:15:00
5:35 AM,42.8,-9999,N/A,30.28,10.0,Calm,Calm,-,N/A,,Clear,0,2013-11-09 11:35:00
5:50 AM,42.8,39.2,87,30.29,10.0,Calm,Calm,-,N/A,,Mostly Cloudy,0,2013-11-09 11:50:00
6:50 AM,42.8,37.4,81,30.29,10.0,Calm,Calm,-,N/A,,Mostly Cloudy,0,2013-11-09 12:50:00
7:50 AM,48.2,37.4,66,30.31,10.0,Calm,Calm,-,N/A,,Mostly Cloudy,0,2013-11-09 13:50:00
8:50 AM,51.8,39.2,62,30.33,10.0,Calm,Calm,-,N/A,,Mostly Cloudy,0,2013-11-09 14:50:00
9:55 AM,53.6,37.4,54,30.32,10.0,Calm,Calm,-,N/A,,Overcast,0,2013-11-09 15:55:00
10:50 AM,55.4,39.2,54,30.31,10.0,East,4.6,-,N/A,,Overcast,90,2013-11-09 16:50:00
11:50 AM,55.4,39.2,54,30.30,10.0,Calm,Calm,-,N/A,,Overcast,0,2013-11-09 17:50:00
12:50 PM,57.2,39.2,51,30.26,10.0,East,4.6,-,N/A,,Overcast,90,2013-11-09 18:50:00
1:45 PM,57.2,41.0,55,30.24,10.0,SSE,5.8,-,N/A,,Overcast,160,2013-11-09 19:45:00
2:45 PM,57.2,42.8,59,30.25,10.0,SW,6.9,-,N/A,,Mostly Cloudy,230,2013-11-09 20:45:00
3:45 PM,57.2,41.0,55,30.25,10.0,Calm,Calm,-,N/A,,Mostly Cloudy,0,2013-11-09 21:45:00
4:45 PM,55.4,42.8,63,30.26,10.0,Calm,Calm,-,N/A,,Overcast,0,2013-11-09 22:45:00
5:45 PM,55.4,44.6,67,30.26,10.0,Calm,Calm,-,N/A,,Overcast,0,2013-11-09 23:45:00
7:45 PM,51.8,48.2,88,30.29,10.0,Calm,Calm,-,N/A,,Overcast,0,2013-11-10 01:45:00
8:15 PM,51.8,-9999,N/A,30.28,10.0,Calm,Calm,-,N/A,,Overcast,0,2013-11-10 02:15:00
8:35 PM,51.8,-9999,N/A,30.28,10.0,Calm,Calm,-,0.01,,Overcast,0,2013-11-10 02:35:00
8:55 PM,51.8,-9999,N/A,30.28,10.0,Calm,Calm,-,0.01,,Overcast,0,2013-11-10 02:55:00
9:15 PM,51.8,-9999,N/A,30.28,10.0,Calm,Calm,-,N/A,,Overcast,0,2013-11-10 03:15:00
9:35 PM,51.8,-9999,N/A,30.28,10.0,Calm,Calm,-,N/A,,Overcast,0,2013-11-10 03:35:00
9:55 PM,51.8,-9999,N/A,30.28,10.0,NNE,3.5,-,N/A,,Overcast,20,2013-11-10 03:55:00
10:15 PM,51.8,-9999,N/A,30.27,10.0,NE,4.6,-,N/A,,Overcast,40,2013-11-10 04:15:00
10:35 PM,51.8,-9999,N/A,30.27,10.0,North,4.6,-,N/A,,Overcast,350,2013-11-10 04:35:00
10:55 PM,51.8,-9999,N/A,30.28,10.0,NW,3.5,-,N/A,,Overcast,310,2013-11-10 04:55:00
11:15 PM,51.8,-9999,N/A,30.28,10.0,NNW,4.6,-,N/A,,Overcast,340,2013-11-10 05:15:00
11:35 PM,51.8,-9999,N/A,30.28,10.0,NNW,3.5,-,N/A,,Overcast,340,2013-11-10 05:35:00
11:55 PM,51.8,-9999,N/A,30.29,10.0,NW,4.6,-,N/A,,Overcast,310,2013-11-10 05:55:00